GW3733 Weather Reports


time (UTC)temp
C
wind
direction
speed
KPH
gust
KPH
rain 1hr
cm
rain 24hr
cm
rain mn
cm
humidity
%
barometer
mb
20260831182032 26 15 0.0 0.0 0.00 0.00 0.00 85 1016.6
20260831181527 26 11 0.0 0.0 0.00 0.00 0.00 83 1016.6
20260831181026 26 11 0.0 0.0 0.00 0.00 0.00 87 1016.5
20260831180521 26 11 0.0 0.0 0.00 0.00 0.00 84 1016.7
20260831180017 25 11 0.0 0.0 0.00 0.00 0.00 89 1016.7
20260831175512 26 11 0.0 0.0 0.00 0.00 0.00 88 1016.7
20260831175009 26 11 0.0 0.0 0.00 0.00 0.00 86 1016.9
20260831174508 25 11 0.0 0.0 0.00 0.00 0.00 89 1016.6
20260831174003 25 11 0.0 0.0 0.00 0.00 0.00 90 1016.3
20260831173501 25 11 0.0 0.0 0.00 0.00 0.00 91 1016.4
20260831172957 25 11 0.0 0.0 0.00 0.00 0.00 87 1016.4
20260831172452 25 11 0.0 0.0 0.00 0.00 0.00 87 1016.5
20260831171947 25 11 0.0 0.0 0.00 0.00 0.00 87 1016.4
20260831171443 25 11 0.0 0.0 0.00 0.00 0.00 85 1016.7
20260831170939 26 11 0.0 0.0 0.00 0.00 0.00 86 1016.6
20260831170430 26 12 0.0 0.0 0.00 0.00 0.00 85 1016.7
20260831165927 26 352 0.0 0.0 0.00 0.00 0.00 82 1016.9
20260831165422 26 352 0.0 0.0 0.00 0.00 0.00 83 1016.9
20260831164919 26 351 0.0 0.0 0.00 0.00 0.00 80 1016.9
20260831164415 26 350 0.0 0.0 0.00 0.00 0.00 83 1017.0
20260831163910 26 348 0.0 0.0 0.00 0.00 0.00 80 1016.7
20260831163405 26 4 0.0 0.0 0.00 0.00 0.00 80 1016.9
20260831162904 26 356 0.0 0.0 0.00 0.00 0.00 80 1017.0
20260831162359 26 342 0.0 0.0 0.00 0.00 0.00 81 1016.9
20260831161857 27 355 0.0 0.0 0.00 0.00 0.00 81 1016.7
20260831161354 26 345 0.0 0.0 0.00 0.00 0.00 79 1017.1
20260831160849 26 345 0.0 0.0 0.00 0.00 0.00 78 1017.0
20260831160343 27 30 0.0 0.0 0.00 0.00 0.00 76 1017.0
20260831155838 27 355 0.0 0.0 0.00 0.00 0.00 76 1016.9
20260831155332 27 15 0.0 0.0 0.00 0.00 0.00 75 1017.1
20260831154828 27 339 0.0 0.0 0.00 0.00 0.00 74 1017.0
20260831154325 26 334 0.0 0.0 0.00 0.00 0.00 80 1017.3
20260831153823 26 359 0.0 0.0 0.00 0.00 0.00 79 1017.0
20260831153319 27 12 0.0 0.0 0.00 0.00 0.00 79 1017.0
20260831152815 27 55 0.0 0.0 0.00 0.00 0.00 76 1017.3
20260831152311 27 12 0.0 0.0 0.00 0.00 0.00 77 1017.2
20260831151806 27 13 0.0 0.0 0.00 0.00 0.00 79 1017.2
20260831151305 26 41 0.0 0.0 0.00 0.00 0.00 81 1017.2
20260831150800 26 355 0.0 0.0 0.00 0.00 0.00 81 1017.3
20260831150256 26 355 0.0 0.0 0.00 0.00 0.00 80 1017.5
20260831145754 26 348 0.0 0.0 0.00 0.00 0.00 83 1017.5
20260831145251 25 354 0.0 0.0 0.00 0.00 0.00 83 1017.5
20260831144746 25 351 0.0 0.0 0.00 0.00 0.00 81 1017.0
20260831144243 26 350 0.0 0.0 0.00 0.00 0.00 84 1017.3
20260831143742 26 345 0.0 0.0 0.00 0.00 0.00 82 1017.4
20260831143238 25 344 0.0 0.0 0.00 0.00 0.00 82 1017.1
20260831142733 25 351 0.0 0.0 0.00 0.00 0.00 80 1017.1
20260831142228 25 339 0.0 0.0 0.00 0.00 0.00 80 1017.0
20260831141728 25 345 0.0 0.0 0.00 0.00 0.00 79 1017.0
20260831141223 25 346 0.0 0.0 0.00 0.00 0.00 81 1017.0
20260831140722 25 344 0.0 0.0 0.00 0.00 0.00 84 1017.0
20260831140217 25 345 0.0 0.0 0.00 0.00 0.00 79 1017.2
20260831135715 25 345 0.0 0.0 0.00 0.00 0.00 80 1017.3
20260831135211 26 346 0.0 0.0 0.00 0.00 0.00 79 1017.3
20260831134706 25 345 0.0 0.0 0.00 0.00 0.00 82 1017.2
20260831134203 25 344 0.0 0.0 0.00 0.00 0.00 86 1017.3
20260831133701 24 344 0.0 0.0 0.00 0.00 0.00 87 1017.3
20260831133156 24 344 0.0 0.0 0.00 0.00 0.00 87 1017.3
20260831132652 23 344 0.0 0.0 0.00 0.00 0.00 87 1017.5
20260831132151 23 344 0.0 0.0 0.00 0.00 0.00 87 1017.6
20260831131646 23 344 0.0 0.0 0.00 0.00 0.00 88 1017.2
20260831131142 22 344 0.0 0.0 0.00 0.00 0.00 89 1017.5
20260831130637 22 344 0.0 0.0 0.00 0.00 0.00 93 1017.6
20260831130133 21 344 0.0 0.0 0.00 0.00 0.00 95 1017.2
20260831125631 21 344 0.0 0.0 0.00 0.00 0.00 97 1017.3
20260831125127 21 344 0.0 0.0 0.00 0.00 0.00 97 1017.2
20260831124623 20 344 0.0 0.0 0.00 0.00 0.00 98 1017.1
20260831124118 20 344 0.0 0.0 0.00 0.00 0.00 99 1017.3
20260831123617 20 344 0.0 0.0 0.00 0.00 0.00 99 1017.4
20260831123111 19 344 0.0 0.0 0.00 0.00 0.00 99 1017.4
20260831122611 19 344 0.0 0.0 0.00 0.00 0.00 99 1017.4
20260831122107 18 344 0.0 0.0 0.00 0.00 0.00 99 1017.5
20260831121606 18 344 0.0 0.0 0.00 0.00 0.00 99 1017.6
20260831121103 18 344 0.0 0.0 0.00 0.00 0.00 99 1017.3
20260831120602 18 344 0.0 0.0 0.00 0.00 0.00 99 1017.2
20260831120058 18 344 0.0 0.0 0.00 0.00 0.00 99 1017.3
20260831115554 18 344 0.0 0.0 0.00 0.00 0.00 99 1017.2
20260831115049 18 344 0.0 0.0 0.00 0.00 0.00 99 1017.4
20260831114547 18 344 0.0 0.0 0.00 0.00 0.00 99 1017.1
20260831114042 18 344 0.0 0.0 0.00 0.00 0.00 99 1017.1
20260831113542 17 344 0.0 0.0 0.00 0.00 0.00 99 1017.2
20260831113038 17 344 0.0 0.0 0.00 0.00 0.00 99 1017.3
20260831112537 17 344 0.0 0.0 0.00 0.00 0.00 99 1017.1
20260831112032 17 344 0.0 0.0 0.00 0.00 0.00 99 1017.1
20260831111528 17 343 0.0 0.0 0.00 0.00 0.00 99 1017.2
20260831111024 17 343 0.0 0.0 0.00 0.00 0.00 99 1017.0
20260831110519 17 343 0.0 0.0 0.00 0.00 0.00 99 1017.1
20260831110014 17 343 0.0 0.0 0.00 0.00 0.00 99 1017.0
20260831105508 17 343 0.0 0.0 0.00 0.00 0.00 99 1016.9
20260831105003 17 343 0.0 0.0 0.00 0.00 0.00 99 1016.5
20260831104459 17 343 0.0 0.0 0.00 0.00 0.00 99 1016.5
20260831103955 17 343 0.0 0.0 0.00 0.00 0.00 99 1016.5
20260831103454 17 343 0.0 0.0 0.00 0.00 0.00 99 1016.5
20260831102950 17 343 0.0 0.0 0.00 0.00 0.00 99 1016.6
20260831102445 17 343 0.0 0.0 0.00 0.00 0.00 99 1016.5
20260831101940 17 343 0.0 0.0 0.00 0.00 0.00 99 1016.5
20260831101435 17 343 0.0 0.0 0.00 0.00 0.00 99 1016.5
20260831100931 17 343 0.0 0.0 0.00 0.00 0.00 99 1016.4
20260831100427 17 343 0.0 0.0 0.00 0.00 0.00 99 1016.2
20260831095922 17 343 0.0 0.0 0.00 0.00 0.00 99 1016.2
20260831095422 18 343 0.0 0.0 0.00 0.00 0.00 99 1015.9
20260831094916 18 343 0.0 0.0 0.00 0.00 0.00 99 1016.0
20260831094412 18 343 0.0 0.0 0.00 0.00 0.00 99 1016.1
20260831093908 18 343 0.0 0.0 0.00 0.00 0.00 99 1016.3
20260831093403 18 342 0.0 0.0 0.00 0.00 0.00 99 1016.2
20260831092900 18 344 0.0 0.0 0.00 0.00 0.00 99 1016.2
20260831092355 18 344 0.0 0.0 0.00 0.00 0.00 99 1016.1
20260831091850 18 344 0.0 0.0 0.00 0.00 0.00 99 1016.1
20260831091345 18 344 0.0 0.0 0.00 0.00 0.00 99 1016.1
20260831090840 18 344 0.0 0.0 0.00 0.00 0.00 99 1015.9
20260831090336 18 344 0.0 0.0 0.00 0.00 0.00 99 1016.1
20260831085832 18 344 0.0 0.0 0.00 0.00 0.00 99 1015.9
20260831085326 18 344 0.0 0.0 0.00 0.00 0.00 99 1016.1
20260831084821 18 344 0.0 0.0 0.00 0.00 0.00 99 1015.9
20260831084317 18 344 0.0 0.0 0.00 0.00 0.00 99 1016.0
20260831083814 18 344 0.0 0.0 0.00 0.00 0.00 99 1016.1
20260831083309 18 344 0.0 0.0 0.00 0.00 0.00 99 1016.2
20260831082808 18 344 0.0 0.0 0.00 0.00 0.00 99 1015.9
20260831082306 18 344 0.0 0.0 0.00 0.00 0.00 99 1016.1
20260831081758 18 344 0.0 0.0 0.00 0.00 0.00 99 1015.9
20260831081254 18 344 0.0 0.0 0.00 0.00 0.00 99 1016.0
20260831080749 18 344 0.0 0.0 0.00 0.00 0.00 99 1016.0
20260831080244 18 344 0.0 0.0 0.00 0.00 0.00 99 1016.0
20260831075740 18 344 0.0 0.0 0.00 0.00 0.00 99 1015.9
20260831075235 18 344 0.0 0.0 0.00 0.00 0.00 99 1016.2
20260831074734 17 344 0.0 0.0 0.00 0.00 0.00 99 1016.0
20260831074233 17 344 0.0 0.0 0.00 0.00 0.00 99 1016.0
20260831073730 17 344 0.0 0.0 0.00 0.00 0.00 99 1015.8
20260831073229 17 344 0.0 0.0 0.00 0.00 0.00 99 1015.8
20260831072724 17 344 0.0 0.0 0.00 0.00 0.00 99 1015.6
20260831072221 17 344 0.0 0.0 0.00 0.00 0.00 99 1015.6
20260831071721 17 344 0.0 0.0 0.00 0.00 0.00 99 1015.6
20260831071215 17 343 0.0 0.0 0.00 0.00 0.00 99 1015.4
20260831070714 17 344 0.0 0.0 0.00 0.00 0.00 99 1015.8
20260831070208 17 344 0.0 0.0 0.00 0.00 0.00 99 1015.6
20260831065708 17 344 0.0 0.0 0.00 0.00 0.00 99 1015.5
20260831065206 17 344 0.0 0.0 0.00 0.00 0.00 99 1015.6
20260831064701 17 344 0.0 0.0 0.00 0.00 0.00 99 1015.7
20260831064156 17 344 0.0 0.0 0.00 0.00 0.00 99 1015.7
20260831063647 17 344 0.0 0.0 0.00 0.00 0.00 99 1015.7
20260831063137 17 344 0.0 0.0 0.00 0.00 0.00 99 1015.8
20260831062636 17 344 0.0 0.0 0.00 0.00 0.00 99 1016.0
20260831062130 18 344 0.0 0.0 0.00 0.00 0.00 99 1015.9
20260831061628 18 344 0.0 0.0 0.00 0.00 0.00 99 1016.0
20260831061124 18 344 0.0 0.0 0.00 0.00 0.00 99 1016.1
20260831060620 18 344 0.0 0.0 0.00 0.00 0.00 99 1016.1
20260831060115 18 344 0.0 0.0 0.00 0.00 0.00 99 1016.2
20260831055614 18 344 0.0 0.0 0.00 0.00 0.00 99 1016.1
20260831055110 18 344 0.0 0.0 0.00 0.00 0.00 99 1016.2
20260831054609 18 344 0.0 0.0 0.00 0.00 0.00 99 1016.3
20260831054108 18 344 0.0 0.0 0.00 0.00 0.00 99 1016.4
20260831053608 18 344 0.0 0.0 0.00 0.00 0.00 99 1016.4
20260831053108 18 344 0.0 0.0 0.00 0.00 0.00 99 1016.4
20260831052606 18 344 0.0 0.0 0.00 0.00 0.00 99 1016.4
20260831052101 18 344 0.0 0.0 0.00 0.00 0.00 99 1016.2
20260831051559 18 344 0.0 0.0 0.00 0.00 0.00 99 1016.3
20260831051053 18 344 0.0 0.0 0.00 0.00 0.00 99 1016.2
20260831050553 18 344 0.0 0.0 0.00 0.00 0.00 99 1016.5
20260831050051 18 344 0.0 0.0 0.00 0.00 0.00 99 1016.4
20260831045551 18 344 0.0 0.0 0.00 0.00 0.00 99 1016.4
20260831045046 18 344 0.0 0.0 0.00 0.00 0.00 99 1016.4
20260831044542 18 344 0.0 0.0 0.00 0.00 0.00 99 1016.3
20260831044037 18 344 0.0 0.0 0.00 0.00 0.00 99 1016.3
20260831043537 18 344 0.0 0.0 0.00 0.00 0.00 99 1016.5
20260831043032 18 344 0.0 0.0 0.00 0.00 0.00 99 1016.3
20260831042526 18 344 0.0 0.0 0.00 0.00 0.00 99 1016.5
20260831042020 19 344 0.0 0.0 0.00 0.00 0.00 99 1016.3
20260831041510 18 344 0.0 0.0 0.00 0.00 0.00 99 1016.2
20260831041009 18 344 0.0 0.0 0.00 0.00 0.00 99 1016.4
20260831040504 18 344 0.0 0.0 0.00 0.00 0.00 99 1016.6
20260831040001 19 344 0.0 0.0 0.00 0.00 0.00 99 1016.3
20260831035455 19 344 0.0 0.0 0.00 0.00 0.00 99 1016.2
20260831034950 19 344 0.0 0.0 0.00 0.00 0.00 99 1016.7
20260831034445 19 344 0.0 0.0 0.00 0.00 0.00 99 1016.5
20260831033941 19 344 0.0 0.0 0.00 0.00 0.00 99 1016.5
20260831033436 19 344 0.0 0.0 0.00 0.00 0.00 99 1016.5
20260831032932 20 344 0.0 0.0 0.00 0.00 0.00 99 1016.5
20260831032431 20 344 0.0 0.0 0.00 0.00 0.00 99 1016.4
20260831031926 20 344 0.0 0.0 0.00 0.00 0.00 99 1016.5
20260831031426 20 344 0.0 0.0 0.00 0.00 0.00 99 1016.6
20260831030920 20 344 0.0 0.0 0.00 0.00 0.00 99 1016.5
20260831030419 20 344 0.0 0.0 0.00 0.00 0.00 99 1016.6
20260831025918 20 344 0.0 0.0 0.00 0.00 0.00 99 1016.7
20260831025412 20 344 0.0 0.0 0.00 0.00 0.00 99 1016.7
20260831024908 20 344 0.0 0.0 0.00 0.00 0.00 99 1016.6
20260831024407 20 344 0.0 0.0 0.00 0.00 0.00 99 1016.7
20260831023907 20 344 0.0 0.0 0.00 0.00 0.00 99 1016.4
20260831023405 20 344 0.0 0.0 0.00 0.00 0.00 99 1016.4
20260831022901 20 344 0.0 0.0 0.00 0.00 0.00 99 1016.4
20260831022400 20 344 0.0 0.0 0.00 0.00 0.00 99 1016.6
20260831021855 20 345 0.0 0.0 0.00 0.00 0.00 99 1016.4
20260831021354 20 345 0.0 0.0 0.00 0.00 0.00 99 1016.5
20260831020850 20 345 0.0 0.0 0.00 0.00 0.00 99 1016.7
20260831020344 20 345 0.0 0.0 0.00 0.00 0.00 99 1016.6
20260831015840 21 345 0.0 0.0 0.00 0.00 0.00 99 1016.6
20260831015336 21 345 0.0 0.0 0.00 0.00 0.00 99 1016.7
20260831014835 21 345 0.0 0.0 0.00 0.00 0.00 99 1016.7
20260831014330 21 345 0.0 0.0 0.00 0.00 0.00 99 1016.7
20260831013827 21 345 0.0 0.0 0.00 0.00 0.00 99 1016.7
20260831013326 21 345 0.0 0.0 0.00 0.00 0.00 99 1016.6
20260831012820 21 345 0.0 0.0 0.00 0.00 0.00 99 1016.7
20260831012317 20 345 0.0 0.0 0.00 0.00 0.00 99 1016.7
20260831011815 20 345 0.0 0.0 0.00 0.00 0.00 99 1016.5
20260831011310 21 345 0.0 0.0 0.00 0.00 0.00 99 1016.6
20260831010806 21 345 0.0 0.0 0.00 0.00 0.00 99 1016.3
20260831010301 21 345 0.0 0.0 0.00 0.00 0.00 99 1016.6
20260831005757 21 345 0.0 0.0 0.00 0.00 0.00 99 1016.5
20260831005252 21 345 0.0 0.0 0.00 0.00 0.00 99 1016.4
20260831004747 21 346 0.0 0.0 0.00 0.00 0.00 99 1016.1
20260831004243 21 345 0.0 0.0 0.00 0.00 0.00 99 1016.0
20260831003738 21 345 0.0 0.0 0.00 0.00 0.00 99 1015.9
20260831003235 21 345 0.0 0.0 0.00 0.00 0.00 99 1015.9
20260831002734 21 346 0.0 0.0 0.00 0.00 0.00 99 1015.8
20260831002233 21 346 0.0 0.0 0.00 0.00 0.00 98 1015.8
20260831001729 21 346 0.0 0.0 0.00 0.00 0.00 98 1015.6
20260831001224 21 346 0.0 0.0 0.00 0.00 0.00 98 1015.7
20260831000721 22 346 0.0 0.0 0.00 0.00 0.00 98 1015.5
20260831000218 21 346 0.0 0.0 0.00 0.00 0.00 97 1015.4
20260830235715 22 344 0.0 0.0 0.00 0.00 0.00 97 1015.5
20260830235210 22 344 0.0 0.0 0.00 0.00 0.00 97 1015.3
20260830234704 22 344 0.0 0.0 0.00 0.00 0.00 97 1015.1
20260830234201 22 344 0.0 0.0 0.00 0.00 0.00 96 1015.2
20260830233656 22 344 0.0 0.0 0.00 0.00 0.00 95 1015.3
20260830233151 22 344 0.0 0.0 0.00 0.00 0.00 95 1015.5
20260830232647 22 344 0.0 0.0 0.00 0.00 0.00 95 1015.4
20260830232142 23 345 0.0 0.0 0.00 0.00 0.00 94 1015.5
20260830231638 23 345 0.0 0.0 0.00 0.00 0.00 93 1015.5
20260830231132 23 344 0.0 0.0 0.00 0.00 0.00 92 1015.6
20260830230628 23 344 0.0 0.0 0.00 0.00 0.00 90 1015.4
20260830230127 24 344 0.0 0.0 0.00 0.00 0.00 89 1015.5
20260830225622 25 344 0.0 0.0 0.00 0.00 0.00 87 1015.6
20260830225117 25 344 0.0 0.0 0.00 0.00 0.00 85 1015.6
20260830224616 25 344 0.0 0.0 0.00 0.00 0.00 83 1015.6
20260830224112 25 344 0.0 0.0 0.00 0.00 0.00 81 1015.7
20260830223609 26 344 0.0 0.0 0.00 0.00 0.00 78 1015.6
20260830223108 26 344 0.0 0.0 0.00 0.00 0.00 78 1015.6
20260830222603 26 344 0.0 0.0 0.00 0.00 0.00 77 1015.5
20260830222059 26 344 0.0 0.0 0.00 0.00 0.00 76 1015.3
20260830221554 26 344 0.0 0.0 0.00 0.00 0.00 73 1015.4
20260830221050 27 343 0.0 0.0 0.00 0.00 0.00 74 1015.3
20260830220545 27 336 0.0 0.0 0.00 0.00 0.00 69 1015.3
20260830220043 27 349 0.0 0.0 0.00 0.00 0.00 69 1015.3
20260830215537 27 348 0.0 0.0 0.00 0.00 0.00 70 1015.5
20260830215032 26 344 0.0 0.0 0.00 0.00 0.00 75 1015.4
20260830214528 26 344 0.0 0.0 0.00 0.00 0.00 84 1015.5
20260830214027 27 343 0.0 0.0 0.00 0.00 0.00 83 1015.4
20260830213527 27 346 0.0 0.0 0.00 0.00 0.00 78 1015.4
20260830213023 27 321 0.0 0.0 0.00 0.00 0.00 81 1015.2
20260830212519 27 334 0.0 0.0 0.00 0.00 0.00 82 1015.2
20260830212014 26 344 0.0 0.0 0.00 0.00 0.00 82 1015.0
20260830211508 26 345 0.0 0.0 0.00 0.00 0.00 82 1015.0
20260830211003 26 354 0.0 0.0 0.00 0.00 0.00 81 1015.0
20260830210503 26 353 0.0 0.0 0.00 0.00 0.00 84 1014.9
20260830210001 25 354 0.0 0.0 0.00 0.00 0.00 83 1015.2
20260830205500 25 356 0.0 0.0 0.00 0.00 0.00 83 1015.1
20260830204955 26 5 0.0 0.0 0.00 0.00 0.00 80 1015.1
20260830204454 26 10 0.0 0.0 0.00 0.00 0.00 82 1015.2
20260830203949 26 346 0.0 0.0 0.00 0.00 0.00 82 1015.5
20260830203446 26 356 0.0 0.0 0.00 0.00 0.00 82 1015.4
20260830202945 26 14 0.0 0.0 0.00 0.00 0.00 80 1015.5
20260830202440 26 331 0.0 0.0 0.00 0.00 0.00 79 1015.4
20260830201931 26 29 0.0 0.0 0.00 0.00 0.00 77 1015.4
20260830201429 26 304 0.0 0.0 0.00 0.00 0.00 74 1015.5
20260830200925 26 46 0.0 0.0 0.00 0.00 0.00 68 1015.5
20260830200425 26 324 0.0 0.0 0.00 0.00 0.00 74 1015.5
20260830195920 26 322 0.0 0.0 0.00 0.00 0.00 79 1015.6
20260830195415 27 342 0.0 0.0 0.00 0.00 0.00 74 1015.5
20260830194913 28 357 0.0 0.0 0.00 0.00 0.00 73 1015.4
20260830194412 30 15 0.0 0.0 0.00 0.00 0.00 66 1015.3
20260830193907 30 8 0.0 0.0 0.00 0.00 0.00 61 1015.5
20260830193406 30 7 0.0 0.0 0.00 0.00 0.00 60 1015.6
20260830192902 30 8 0.0 0.0 0.00 0.00 0.00 58 1015.6
20260830192401 31 318 0.0 0.0 0.00 0.00 0.00 55 1015.5
20260830191857 31 317 0.0 0.0 0.00 0.00 0.00 58 1015.5
20260830191357 31 313 0.0 0.0 0.00 0.00 0.00 59 1015.7
20260830190853 31 312 0.0 0.0 0.00 0.00 0.00 63 1015.6
20260830190348 30 329 0.0 0.0 0.00 0.00 0.00 63 1015.7
20260830185846 31 349 0.0 0.0 0.00 0.00 0.00 61 1015.8
20260830185342 30 2 0.0 0.0 0.00 0.00 0.00 61 1015.8
20260830184837 31 342 0.0 0.0 0.00 0.00 0.00 63 1015.8
20260830184336 31 11 0.0 0.0 0.00 0.00 0.00 62 1016.1
20260830183830 30 13 0.0 0.0 0.00 0.00 0.00 60 1016.2
20260830183325 31 4 0.0 0.0 0.00 0.00 0.00 59 1016.3
20260830182821 30 351 0.0 0.0 0.00 0.00 0.00 62 1016.6
20260830182316 30 6 0.0 0.0 0.00 0.00 0.00 61 1016.6